RH
8 8 10 11 19 18 21 25 25 18 18 22 23 22 19 16 15 14 14 14 14 18 17 17 16 21 22 23 25 25 24 31 30 36 42 50 60 73 82 88 91 91 92 83
7 12 11 11 16 21 23 25 21 18 20 29 23 21 18 17 15 15 13 14 14 15 17 17 18 21 21 23 26 33 32 37 41 46 51 57 65 79 80 85 89 94 93 75
8 10 12 13 15 21 22 23 24 20 18 20 18 16 16 15 14 13 14 14 15 15 14 14 16 21 23 24 24 28 41 43 53 61 62 67 82 79 78 80 92 79 70 51
9 11 12 17 16 20 19 23 23 21 21 18 18 18 16 15 15 12 13 13 15 17 17 18 22 23 25 28 23 29 41 46 50 60 71 79 82 81 79 83 74 60 49 46
10 12 14 20 21 21 22 20 18 21 21 20 20 19 19 18 16 14 14 14 13 14 18 22 24 26 29 32 30 30 40 49 53 72 75 80 88 80 82 71 49 38 40 44
11 12 17 22 22 20 24 17 16 17 20 20 19 20 17 17 14 18 17 17 19 22 26 25 26 28 30 31 30 31 36 47 53 72 87 87 80 89 79 61 44 41 44 41
11 13 19 21 21 19 22 18 18 18 20 18 18 18 17 18 16 14 15 19 21 25 26 26 30 36 38 33 30 34 44 54 57 80 90 94 97 84 69 51 45 43 43 41
12 15 18 21 21 18 20 18 19 18 21 20 20 19 17 16 15 16 17 21 23 24 31 39 44 53 56 43 34 33 38 61 83 86 98 95 95 80 64 57 53 47 42 38
13 16 19 21 20 19 16 15 17 18 20 23 21 21 18 17 15 16 19 21 22 25 25 27 37 42 34 44 43 37 43 56 83 98 90 98 92 85 61 60 57 53 46 43
15 17 19 22 20 17 16 16 18 19 24 29 28 24 22 20 18 18 19 18 19 25 26 25 31 34 38 45 56 58 61 63 97 98 87 91 87 88 60 68 59 56 47 47
17 18 20 21 19 17 17 17 18 18 23 29 25 23 19 16 19 20 16 24 22 25 28 31 33 39 51 74 66 71 71 82 96 97 91 94 91 76 63 56 54 51 46 42
19 20 21 21 18 18 18 17 18 17 19 24 21 19 16 16 20 17 19 20 21 24 26 31 37 49 60 71 68 64 75 79 97 93 91 91 92 70 54 54 51 47 43 40
21 22 22 20 20 20 17 16 17 16 20 23 21 21 19 16 16 19 18 20 22 34 40 42 48 59 66 67 68 71 85 94 95 96 97 98 83 63 56 53 50 46 40 37
24 24 22 21 20 19 17 18 20 19 21 25 29 24 21 21 21 19 19 21 27 38 47 50 55 61 68 78 84 81 85 91 96 96 95 91 76 64 58 55 50 45 39 33
24 24 23 22 21 19 18 18 20 20 19 25 30 24 23 23 24 25 27 30 36 44 49 54 60 64 71 76 85 90 93 94 94 91 91 90 73 61 55 50 49 42 37 33
25 25 23 23 21 19 19 19 22 19 18 22 29 30 30 26 25 28 32 36 39 41 45 54 60 66 71 74 78 83 85 85 86 87 88 87 74 63 56 50 46 41 36 32
26 26 25 23 21 20 22 20 21 21 20 23 27 29 28 30 30 30 32 34 38 43 46 54 60 65 68 76 80 81 84 86 85 82 80 77 74 69 58 47 40 35 33 30
28 27 25 22 21 22 22 19 18 20 21 22 29 32 29 33 32 31 36 38 41 46 47 52 58 64 70 77 81 83 85 85 83 79 77 77 70 66 56 46 42 40 35 31
29 27 25 24 26 26 21 18 18 20 23 24 26 29 30 32 33 32 35 37 43 44 48 51 55 60 75 79 80 83 82 83 82 79 74 73 71 63 49 42 39 35 30 29
28 26 25 25 26 24 20 19 21 25 26 29 28 28 28 29 30 32 31 33 40 44 45 52 57 62 66 79 82 80 83 82 82 79 74 67 68 68 60 44 40 33 29 27
27 27 31 27 24 25 25 23 29 31 31 31 31 30 30 30 29 27 29 30 33 36 40 47 54 62 62 68 72 78 80 78 76 76 76 76 72 67 56 46 42 37 33 31
30 31 29 27 29 28 33 34 31 31 32 32 32 31 30 30 28 26 28 28 30 38 34 40 51 52 59 66 69 71 74 75 73 72 72 73 76 69 58 50 43 40 36 31
34 32 30 35 33 39 33 42 33 34 34 35 32 30 26 26 27 26 25 27 31 27 31 37 44 44 51 58 63 67 70 73 75 74 70 71 67 68 67 58 51 40 34 31
36 37 43 42 41 32 31 29 33 34 32 31 32 28 29 28 28 28 26 29 28 30 34 40 36 38 42 46 50 51 53 57 67 74 75 75 74 67 63 63 61 54 43 35
45 45 50 44 41 39 38 36 34 34 34 33 32 29 29 28 27 29 29 32 33 27 29 35 32 33 32 33 36 36 37 41 47 56 69 75 78 77 75 69 64 57 55 52
54 53 51 45 44 42 38 37 38 39 36 33 31 32 30 31 30 29 32 28 31 31 31 31 30 27 27 26 24 23 21 28 32 37 47 59 66 73 79 82 79 76 69 62
65 60 52 49 47 46 44 42 41 41 36 37 35 34 36 33 33 29 30 34 35 32 33 31 28 29 27 24 21 19 16 17 19 25 30 42 52 59 68 71 76 81 84 81